OPTIMAL-1 (55183 NORAD) Tracking and Keplerian Element Data

This shows tracking and keplerian element data for the satellite.

Feedback or suggestion? Click here.




ElementValue
Catalog55183
NameOPTIMAL-1
Epoch Orbit1226
Epoch Day85.07170922
Epoch Year2023
RAAN17.263
Inclination51.6415
Eccentricity0.0007478
Argument of Perigee161.8853
Mean Anonmoly198.2408
Mean Motion15.6054539
Decay Rate0.0008989
L11 55183U 98067VA 23085.07170922 .00089890 00000+0 10611-2 0 9992
L22 55183 51.6415 17.2630 0007478 161.8853 198.2408 15.60545390 12264



Live tracking and technical data element details for OPTIMAL-1 (NORAD 55183). OPTIMAL-1 can be tracked NOW for your location showing map with azimuth and elevation plus other details from your city location.







IsCatalogInMostPopularTable: catalog: 55183, numindb: 12
Update: records affected: 1



GetName: 55183 OPTIMAL-1

Hit Count: updated at: Mon, 27 Mar 2023 06:49:09 GMT